Palmer, AK

12:18 AM AKST on February 18, 2018 (GMT -0900)
Palmer Municipal

Weather History for PAAQ - October, 2012

Change the Weather History Date:

Thursday, October 25, 2012

  Actual Average Record
Temperature  
Mean Temperature 26 °F -  
Max Temperature 33 °F 35 °F 50 °F (1980)
Min Temperature 18 °F 18 °F -4 °F (1970)
Degree Days  
Heating Degree Days 40    
Moisture  
Dew Point 10 °F    
Average Humidity 53    
Maximum Humidity 74    
Minimum Humidity 35    
Precipitation  
Precipitation 0.00 in - - ()
Sea Level Pressure  
Sea Level Pressure 30.49 in    
Wind  
Wind Speed 2 mph (SE)    
Max Wind Speed 8 mph    
Max Gust Speed -    
Visibility 10 miles    
Events      
Averages and records for this station are not official NWS values.
T = Trace of Precipitation, MM = Missing Value Source: NWS Daily Summary

Daily Weather History Graph

Daily Weather History Graph

Search for Another Location

Airport or City:

Trip Planner

Search our weather history database for the weather conditions in past years. The results will help you decide how hot, cold, wet, or windy it might be!

Date:

Astronomy

Oct. 25, 2012 Rise Set
Actual Time 9:08 AM AKDT 6:11 PM AKDT
Civil Twilight 8:22 AM AKDT 6:57 PM AKDT
Nautical Twilight 7:30 AM AKDT 7:48 PM AKDT
Astronomical Twilight 6:40 AM AKDT 8:38 PM AKDT
Moon 4:51 PM AKDT (10/25) 4:16 AM AKDT (10/25)
Length of Visible Light 10h 35m
Length of Day
9h 02m
Waxing Gibbous, 85% of the Moon is Illuminated
Oct 25
Waxing Gibbous
Oct 29
Full
Nov 6
Last Quarter
Nov 13
New
Nov 20
First Quarter

Hourly Weather History & Observations

Time (AKDT) Temp. Windchill Dew Point Humidity Pressure Visibility Wind Dir Wind Speed Gust Speed Precip Events Conditions
12:53 AM 28.0 °F 24.2 °F 8.1 °F 43% 30.45 in 10.0 mi South 3.5 mph - N/A   Widespread Dust
1:53 AM 28.9 °F 25.2 °F 8.1 °F 41% 30.47 in 10.0 mi Variable 3.5 mph - N/A   Widespread Dust
2:53 AM 28.0 °F - 7.0 °F 41% 30.48 in 10.0 mi Calm Calm - N/A   Widespread Dust
3:53 AM 19.9 °F 10.1 °F 9.0 °F 62% 30.48 in 10.0 mi ESE 8.1 mph - N/A   Widespread Dust
4:53 AM 23.0 °F - 8.1 °F 53% 30.48 in 10.0 mi Calm Calm - N/A   Widespread Dust
6:53 AM 23.0 °F - 7.0 °F 50% 30.48 in 10.0 mi Calm Calm - N/A   Widespread Dust
7:53 AM 18.0 °F - 3.0 °F 52% 30.49 in 10.0 mi Calm Calm - N/A   Widespread Dust
8:53 AM 19.0 °F - 7.0 °F 59% 30.49 in 10.0 mi Calm Calm - N/A   Clear
9:53 AM 24.1 °F 18.2 °F 7.0 °F 48% 30.49 in 10.0 mi North 4.6 mph - N/A   Clear
10:53 AM 23.0 °F - 12.9 °F 65% 30.50 in 10.0 mi Calm Calm - N/A   Clear
11:53 AM 30.9 °F 27.5 °F 6.1 °F 35% 30.51 in 10.0 mi North 3.5 mph - N/A   Clear
12:53 PM 30.9 °F - 10.9 °F 43% 30.52 in 10.0 mi Calm Calm - N/A   Clear
1:53 PM 32.0 °F - 14.0 °F 48% 30.52 in 10.0 mi Calm Calm - N/A   Clear
2:53 PM 33.1 °F 30.0 °F 15.1 °F 48% 30.51 in 10.0 mi SSE 3.5 mph - N/A   Clear
3:53 PM 33.1 °F 30.0 °F 12.9 °F 43% 30.49 in 10.0 mi South 3.5 mph - N/A   Clear
4:53 PM 32.0 °F 28.7 °F 14.0 °F 48% 30.48 in 10.0 mi SSE 3.5 mph - N/A   Clear
5:53 PM 28.0 °F - 12.9 °F 53% 30.48 in 10.0 mi Calm Calm - N/A   Clear
6:53 PM 27.0 °F - 10.9 °F 51% 30.48 in 10.0 mi Calm Calm - N/A   Clear
7:53 PM 21.9 °F - 10.0 °F 60% 30.48 in 10.0 mi Calm Calm - N/A   Clear
8:53 PM 19.9 °F - 10.0 °F 65% 30.48 in 10.0 mi Calm Calm - N/A   Clear
9:53 PM 19.0 °F - 10.9 °F 71% 30.47 in 10.0 mi Calm Calm - N/A   Clear
10:53 PM 21.0 °F - 10.9 °F 65% 30.48 in 10.0 mi Calm Calm - N/A   Clear
11:53 PM 19.9 °F - 12.9 °F 74% 30.48 in 10.0 mi Calm Calm - N/A   Clear